QPF
0.02 0.00 0.01 0.00 0.00 0.00 0.00 0.00 0.00 0.01 0.01 0.00 0.00 0.00 0.00 0.00 0.00 0.00 0.00 0.00 0.00 0.01 0.01 0.00 0.00 0.01 0.01 0.01 0.02 0.03 0.03 0.03 0.05 0.06 0.08 0.07 0.06 0.07 0.07 0.05 0.02 0.01 0.02
0.00 0.00 0.01 0.00 0.00 0.00 0.00 0.00 0.00 0.01 0.01 0.01 0.00 0.00 0.00 0.00 0.00 0.00 0.00 0.01 0.01 0.01 0.01 0.00 0.00 0.00 0.01 0.01 0.02 0.02 0.03 0.04 0.07 0.09 0.10 0.07 0.07 0.07 0.06 0.04 0.02 0.01 0.02
0.00 0.00 0.01 0.00 0.00 0.00 0.00 0.00 0.00 0.00 0.01 0.01 0.00 0.00 0.00 0.01 0.01 0.01 0.01 0.01 0.01 0.00 0.00 0.00 0.00 0.00 0.00 0.01 0.01 0.02 0.04 0.06 0.09 0.13 0.12 0.04 0.04 0.07 0.06 0.04 0.03 0.02 0.02
0.00 0.00 0.00 0.00 0.00 0.00 0.00 0.00 0.01 0.01 0.01 0.01 0.00 0.00 0.00 0.01 0.01 0.01 0.01 0.01 0.01 0.01 0.00 0.00 0.00 0.00 0.00 0.00 0.01 0.02 0.05 0.08 0.10 0.11 0.08 0.04 0.02 0.04 0.04 0.02 0.02 0.01 0.02
0.01 0.00 0.00 0.00 0.00 0.00 0.00 0.00 0.01 0.01 0.01 0.00 0.00 0.00 0.00 0.00 0.00 0.01 0.01 0.01 0.01 0.01 0.00 0.00 0.00 0.00 0.00 0.00 0.01 0.02 0.04 0.08 0.11 0.11 0.08 0.05 0.02 0.03 0.02 0.01 0.02 0.02 0.02
0.01 0.00 0.00 0.00 0.00 0.00 0.00 0.00 0.00 0.01 0.01 0.00 0.00 0.00 0.00 0.00 0.00 0.01 0.01 0.00 0.00 0.01 0.01 0.00 0.00 0.00 0.00 0.00 0.01 0.02 0.04 0.08 0.10 0.08 0.05 0.04 0.02 0.02 0.02 0.02 0.02 0.02 0.02
0.02 0.01 0.00 0.00 0.00 0.00 0.00 0.00 0.00 0.01 0.00 0.00 0.00 0.00 0.00 0.00 0.01 0.01 0.00 0.01 0.00 0.00 0.00 0.00 0.00 0.00 0.00 0.00 0.01 0.02 0.04 0.09 0.10 0.10 0.09 0.06 0.02 0.03 0.02 0.02 0.02 0.01 0.02
0.07 0.02 0.01 0.01 0.00 0.00 0.00 0.00 0.00 0.01 0.00 0.00 0.00 0.00 0.00 0.00 0.00 0.00 0.00 0.00 0.00 0.00 0.00 0.00 0.00 0.00 0.01 0.01 0.01 0.02 0.04 0.06 0.10 0.15 0.12 0.06 0.04 0.04 0.02 0.02 0.01 0.01 0.01
0.14 0.03 0.00 0.00 0.00 0.00 0.00 0.00 0.01 0.00 0.00 0.00 0.00 0.00 0.00 0.00 0.00 0.00 0.00 0.00 0.00 0.00 0.00 0.00 0.00 0.00 0.01 0.01 0.01 0.03 0.05 0.07 0.11 0.24 0.21 0.09 0.06 0.04 0.02 0.01 0.01 0.01 0.02
0.10 0.05 0.01 0.01 0.00 0.00 0.00 0.01 0.01 0.01 0.00 0.00 0.00 0.00 0.01 0.01 0.01 0.01 0.00 0.00 0.00 0.00 0.00 0.00 0.00 0.00 0.01 0.01 0.02 0.03 0.05 0.07 0.14 0.24 0.29 0.12 0.09 0.06 0.04 0.01 0.01 0.01 0.02
0.21 0.14 0.05 0.02 0.01 0.01 0.00 0.01 0.01 0.01 0.01 0.01 0.00 0.01 0.02 0.01 0.01 0.01 0.01 0.01 0.01 0.01 0.01 0.01 0.01 0.01 0.01 0.01 0.02 0.04 0.06 0.09 0.24 0.32 0.42 0.21 0.13 0.08 0.05 0.02 0.01 0.01 0.00
0.24 0.19 0.12 0.06 0.04 0.03 0.02 0.01 0.01 0.01 0.01 0.02 0.01 0.01 0.01 0.01 0.02 0.02 0.03 0.03 0.02 0.02 0.01 0.02 0.02 0.02 0.02 0.02 0.03 0.05 0.07 0.12 0.23 0.35 0.35 0.24 0.14 0.09 0.05 0.03 0.02 0.01 0.00
0.21 0.13 0.17 0.13 0.11 0.07 0.05 0.03 0.03 0.03 0.02 0.02 0.03 0.02 0.02 0.02 0.02 0.02 0.01 0.02 0.02 0.02 0.02 0.02 0.02 0.02 0.03 0.05 0.05 0.07 0.10 0.13 0.19 0.36 0.30 0.20 0.14 0.10 0.06 0.04 0.03 0.02 0.01
0.18 0.18 0.24 0.23 0.22 0.14 0.08 0.06 0.05 0.06 0.04 0.03 0.03 0.02 0.01 0.01 0.01 0.01 0.01 0.01 0.01 0.01 0.01 0.01 0.01 0.02 0.02 0.04 0.04 0.07 0.09 0.14 0.14 0.20 0.20 0.18 0.13 0.11 0.09 0.06 0.04 0.02 0.02
0.16 0.16 0.21 0.22 0.32 0.22 0.13 0.09 0.06 0.07 0.03 0.02 0.02 0.01 0.01 0.00 0.00 0.00 0.00 0.00 0.00 0.00 0.01 0.01 0.01 0.01 0.02 0.02 0.02 0.03 0.05 0.08 0.08 0.11 0.15 0.12 0.10 0.09 0.10 0.09 0.06 0.04 0.03
0.25 0.19 0.16 0.13 0.17 0.17 0.13 0.08 0.06 0.06 0.03 0.01 0.01 0.00 0.00 0.00 0.00 0.00 0.00 0.00 0.00 0.00 0.00 0.00 0.00 0.01 0.01 0.01 0.01 0.01 0.03 0.04 0.05 0.05 0.07 0.06 0.06 0.07 0.09 0.09 0.09 0.08 0.06
0.26 0.21 0.14 0.13 0.11 0.10 0.09 0.06 0.05 0.05 0.03 0.02 0.01 0.00 0.00 0.00 0.00 0.00 0.00 0.00 0.00 0.00 0.00 0.00 0.00 0.00 0.01 0.00 0.00 0.01 0.01 0.01 0.02 0.03 0.03 0.03 0.03 0.05 0.08 0.09 0.08 0.08 0.08
0.28 0.22 0.17 0.12 0.12 0.11 0.09 0.07 0.04 0.04 0.03 0.02 0.01 0.00 0.00 0.00 0.00 0.00 0.00 0.00 0.00 0.00 0.00 0.00 0.00 0.00 0.00 0.00 0.00 0.01 0.01 0.01 0.01 0.02 0.03 0.03 0.02 0.02 0.04 0.06 0.07 0.07 0.06
0.33 0.28 0.20 0.20 0.13 0.11 0.09 0.06 0.04 0.03 0.02 0.01 0.01 0.00 0.00 0.00 0.00 0.00 0.00 0.00 0.00 0.00 0.00 0.00 0.00 0.00 0.00 0.00 0.00 0.01 0.01 0.01 0.01 0.01 0.02 0.03 0.03 0.03 0.03 0.04 0.05 0.05 0.05
0.34 0.30 0.24 0.19 0.12 0.10 0.09 0.08 0.06 0.03 0.03 0.01 0.00 0.00 0.00 0.00 0.00 0.00 0.00 0.00 0.00 0.00 0.00 0.00 0.00 0.00 0.00 0.00 0.00 0.00 0.00 0.00 0.00 0.01 0.01 0.01 0.02 0.02 0.03 0.02 0.02 0.02 0.04
0.29 0.27 0.24 0.21 0.16 0.12 0.08 0.05 0.04 0.05 0.05 0.02 0.00 0.00 0.00 0.00 0.00 0.00 0.00 0.00 0.00 0.00 0.00 0.00 0.00 0.00 0.00 0.01 0.01 0.00 0.00 0.00 0.00 0.00 0.00 0.00 0.01 0.01 0.02 0.01 0.01 0.01 0.02
0.18 0.17 0.19 0.17 0.17 0.13 0.09 0.05 0.04 0.05 0.04 0.01 0.00 0.00 0.00 0.00 0.00 0.00 0.00 0.00 0.00 0.00 0.00 0.00 0.00 0.00 0.00 0.00 0.00 0.00 0.00 0.01 0.01 0.00 0.00 0.00 0.00 0.00 0.01 0.01 0.01 0.01 0.02
0.18 0.14 0.13 0.12 0.11 0.12 0.11 0.08 0.07 0.05 0.03 0.02 0.01 0.00 0.00 0.00 0.00 0.00 0.00 0.00 0.00 0.00 0.00 0.00 0.00 0.00 0.00 0.00 0.00 0.00 0.00 0.01 0.00 0.00 0.00 0.00 0.00 0.00 0.00 0.00 0.01 0.01 0.01
0.22 0.21 0.18 0.15 0.13 0.11 0.10 0.08 0.06 0.05 0.03 0.03 0.01 0.00 0.00 0.00 0.00 0.00 0.00 0.00 0.00 0.00 0.00 0.00 0.00 0.00 0.00 0.00 0.00 0.00 0.00 0.00 0.00 0.00 0.00 0.00 0.00 0.00 0.00 0.00 0.00 0.00 0.01
0.16 0.18 0.17 0.16 0.15 0.13 0.09 0.09 0.08 0.05 0.03 0.03 0.03 0.01 0.00 0.00 0.00 0.00 0.00 0.00 0.00 0.00 0.00 0.00 0.00 0.00 0.00 0.00 0.00 0.00 0.00 0.00 0.00 0.00 0.00 0.00 0.00 0.00 0.00 0.00 0.00 0.00 0.00
0.10 0.12 0.14 0.12 0.12 0.13 0.10 0.09 0.09 0.07 0.04 0.03 0.03 0.02 0.01 0.00 0.00 0.00 0.00 0.00 0.00 0.00 0.00 0.00 0.00 0.00 0.00 0.00 0.00 0.00 0.00 0.00 0.00 0.00 0.00 0.00 0.00 0.00 0.00 0.00 0.00 0.00 0.00
MSLP
1012.58 1012.22 1012.09 1012.19 1012.50 1012.91 1013.34 1013.71 1013.97 1014.11 1014.15 1014.15 1014.16 1014.22 1014.35 1014.55 1014.79 1015.02 1015.22 1015.37 1015.45 1015.48 1015.48 1015.48 1015.48 1015.50 1015.52 1015.55 1015.57 1015.58 1015.59 1015.60 1015.63 1015.69 1015.78 1015.91 1016.06 1016.23 1016.40 1016.55 1016.70 1016.82 1016.94
1012.25 1012.00 1011.97 1012.16 1012.53 1013.00 1013.45 1013.84 1014.09 1014.23 1014.28 1014.29 1014.32 1014.41 1014.57 1014.79 1015.04 1015.28 1015.47 1015.59 1015.66 1015.67 1015.65 1015.63 1015.62 1015.61 1015.62 1015.63 1015.64 1015.65 1015.67 1015.70 1015.76 1015.86 1015.99 1016.15 1016.32 1016.50 1016.66 1016.81 1016.94 1017.06 1017.18
1011.86 1011.71 1011.78 1012.07 1012.52 1013.03 1013.53 1013.92 1014.20 1014.35 1014.42 1014.45 1014.51 1014.61 1014.78 1015.00 1015.24 1015.45 1015.62 1015.72 1015.77 1015.77 1015.76 1015.73 1015.71 1015.70 1015.70 1015.70 1015.71 1015.72 1015.75 1015.81 1015.90 1016.04 1016.21 1016.39 1016.58 1016.75 1016.90 1017.04 1017.16 1017.28 1017.41
1011.46 1011.42 1011.60 1011.99 1012.50 1013.06 1013.58 1014.01 1014.30 1014.47 1014.56 1014.62 1014.69 1014.80 1014.97 1015.16 1015.37 1015.55 1015.68 1015.77 1015.80 1015.81 1015.80 1015.79 1015.79 1015.79 1015.79 1015.79 1015.79 1015.81 1015.86 1015.94 1016.07 1016.24 1016.44 1016.64 1016.84 1017.00 1017.14 1017.26 1017.36 1017.48 1017.63
1011.14 1011.22 1011.50 1011.96 1012.53 1013.12 1013.66 1014.10 1014.40 1014.59 1014.70 1014.77 1014.86 1014.97 1015.12 1015.29 1015.45 1015.58 1015.68 1015.74 1015.77 1015.79 1015.81 1015.83 1015.86 1015.88 1015.89 1015.91 1015.92 1015.95 1016.01 1016.12 1016.28 1016.48 1016.70 1016.92 1017.11 1017.26 1017.38 1017.47 1017.56 1017.68 1017.84
1010.98 1011.16 1011.53 1012.05 1012.65 1013.25 1013.79 1014.21 1014.51 1014.70 1014.82 1014.91 1015.00 1015.12 1015.25 1015.38 1015.50 1015.59 1015.65 1015.69 1015.72 1015.76 1015.81 1015.87 1015.94 1015.99 1016.03 1016.06 1016.08 1016.12 1016.21 1016.33 1016.52 1016.74 1016.98 1017.20 1017.39 1017.52 1017.61 1017.68 1017.76 1017.87 1018.04
1011.03 1011.29 1011.73 1012.28 1012.89 1013.47 1013.97 1014.35 1014.62 1014.80 1014.92 1015.02 1015.13 1015.24 1015.36 1015.47 1015.56 1015.61 1015.64 1015.66 1015.69 1015.75 1015.83 1015.93 1016.04 1016.12 1016.19 1016.24 1016.27 1016.33 1016.42 1016.56 1016.77 1017.01 1017.25 1017.48 1017.66 1017.78 1017.85 1017.89 1017.95 1018.05 1018.22
1011.27 1011.61 1012.09 1012.66 1013.24 1013.77 1014.20 1014.52 1014.74 1014.89 1015.00 1015.11 1015.24 1015.36 1015.49 1015.58 1015.64 1015.67 1015.67 1015.67 1015.70 1015.77 1015.87 1016.00 1016.14 1016.26 1016.35 1016.41 1016.46 1016.52 1016.62 1016.78 1016.99 1017.24 1017.50 1017.73 1017.90 1018.01 1018.07 1018.09 1018.13 1018.22 1018.38
1011.65 1012.06 1012.57 1013.13 1013.65 1014.11 1014.45 1014.69 1014.85 1014.96 1015.07 1015.19 1015.34 1015.49 1015.63 1015.73 1015.77 1015.78 1015.76 1015.74 1015.75 1015.82 1015.93 1016.08 1016.23 1016.37 1016.48 1016.55 1016.61 1016.68 1016.78 1016.95 1017.16 1017.42 1017.69 1017.92 1018.10 1018.20 1018.25 1018.27 1018.29 1018.37 1018.52
1012.07 1012.53 1013.06 1013.59 1014.06 1014.43 1014.69 1014.84 1014.94 1015.02 1015.13 1015.27 1015.45 1015.63 1015.79 1015.90 1015.95 1015.93 1015.89 1015.85 1015.84 1015.89 1016.00 1016.14 1016.30 1016.45 1016.56 1016.65 1016.71 1016.78 1016.89 1017.05 1017.27 1017.53 1017.80 1018.04 1018.22 1018.33 1018.38 1018.40 1018.43 1018.50 1018.64
1012.39 1012.91 1013.45 1013.96 1014.38 1014.68 1014.85 1014.95 1015.00 1015.06 1015.18 1015.35 1015.56 1015.78 1015.97 1016.10 1016.15 1016.12 1016.05 1015.99 1015.95 1015.98 1016.06 1016.20 1016.35 1016.50 1016.62 1016.71 1016.77 1016.85 1016.96 1017.11 1017.33 1017.58 1017.84 1018.08 1018.27 1018.39 1018.46 1018.49 1018.53 1018.61 1018.75
1012.53 1013.09 1013.66 1014.15 1014.53 1014.78 1014.91 1014.97 1015.01 1015.08 1015.22 1015.42 1015.68 1015.94 1016.15 1016.29 1016.34 1016.31 1016.23 1016.13 1016.07 1016.07 1016.13 1016.25 1016.39 1016.54 1016.66 1016.75 1016.82 1016.90 1017.00 1017.15 1017.34 1017.58 1017.82 1018.05 1018.25 1018.39 1018.48 1018.54 1018.60 1018.69 1018.84
1012.41 1013.02 1013.61 1014.10 1014.47 1014.71 1014.84 1014.90 1014.96 1015.07 1015.24 1015.49 1015.78 1016.07 1016.31 1016.46 1016.52 1016.48 1016.38 1016.28 1016.20 1016.17 1016.22 1016.32 1016.45 1016.59 1016.72 1016.82 1016.89 1016.97 1017.06 1017.19 1017.36 1017.56 1017.78 1017.99 1018.17 1018.32 1018.44 1018.53 1018.63 1018.75 1018.90
1012.05 1012.70 1013.31 1013.82 1014.21 1014.47 1014.63 1014.75 1014.87 1015.03 1015.26 1015.55 1015.87 1016.18 1016.43 1016.59 1016.65 1016.61 1016.52 1016.41 1016.33 1016.30 1016.33 1016.43 1016.56 1016.70 1016.83 1016.93 1017.02 1017.09 1017.17 1017.27 1017.40 1017.56 1017.73 1017.91 1018.07 1018.21 1018.34 1018.47 1018.60 1018.75 1018.93
1011.51 1012.18 1012.80 1013.34 1013.77 1014.09 1014.33 1014.54 1014.74 1014.98 1015.27 1015.60 1015.94 1016.25 1016.50 1016.66 1016.72 1016.70 1016.62 1016.54 1016.47 1016.46 1016.50 1016.60 1016.73 1016.87 1017.00 1017.12 1017.20 1017.28 1017.34 1017.41 1017.49 1017.60 1017.71 1017.83 1017.95 1018.08 1018.21 1018.35 1018.51 1018.70 1018.91
1010.90 1011.57 1012.20 1012.76 1013.24 1013.65 1013.99 1014.31 1014.62 1014.95 1015.30 1015.66 1016.00 1016.30 1016.53 1016.68 1016.74 1016.74 1016.71 1016.66 1016.65 1016.66 1016.73 1016.84 1016.98 1017.12 1017.26 1017.37 1017.46 1017.52 1017.57 1017.61 1017.65 1017.68 1017.73 1017.78 1017.85 1017.93 1018.04 1018.19 1018.37 1018.59 1018.82
1010.36 1010.98 1011.60 1012.18 1012.71 1013.21 1013.67 1014.11 1014.54 1014.96 1015.36 1015.73 1016.05 1016.32 1016.52 1016.66 1016.73 1016.77 1016.79 1016.81 1016.85 1016.92 1017.02 1017.15 1017.29 1017.43 1017.56 1017.67 1017.76 1017.82 1017.85 1017.86 1017.86 1017.83 1017.80 1017.78 1017.77 1017.80 1017.88 1018.01 1018.19 1018.41 1018.67
1009.97 1010.54 1011.11 1011.69 1012.27 1012.85 1013.43 1013.99 1014.53 1015.02 1015.46 1015.82 1016.12 1016.34 1016.50 1016.62 1016.71 1016.79 1016.87 1016.97 1017.09 1017.22 1017.36 1017.50 1017.65 1017.78 1017.89 1018.00 1018.08 1018.13 1018.16 1018.16 1018.11 1018.04 1017.94 1017.84 1017.76 1017.72 1017.74 1017.83 1017.99 1018.21 1018.46
1009.81 1010.30 1010.81 1011.37 1011.97 1012.62 1013.30 1013.96 1014.59 1015.14 1015.60 1015.95 1016.20 1016.37 1016.49 1016.59 1016.69 1016.82 1016.97 1017.15 1017.35 1017.54 1017.72 1017.88 1018.01 1018.12 1018.22 1018.31 1018.39 1018.45 1018.48 1018.47 1018.41 1018.30 1018.16 1017.99 1017.83 1017.71 1017.66 1017.69 1017.80 1018.00 1018.24
1009.90 1010.28 1010.71 1011.23 1011.84 1012.53 1013.27 1014.02 1014.71 1015.30 1015.76 1016.09 1016.28 1016.40 1016.48 1016.57 1016.69 1016.86 1017.09 1017.35 1017.62 1017.87 1018.07 1018.23 1018.35 1018.44 1018.52 1018.59 1018.67 1018.74 1018.79 1018.80 1018.75 1018.63 1018.45 1018.22 1018.00 1017.80 1017.67 1017.63 1017.69 1017.83 1018.04
1010.18 1010.46 1010.80 1011.25 1011.84 1012.55 1013.33 1014.12 1014.86 1015.47 1015.92 1016.21 1016.37 1016.44 1016.49 1016.56 1016.70 1016.92 1017.22 1017.55 1017.87 1018.16 1018.39 1018.55 1018.65 1018.71 1018.76 1018.82 1018.90 1019.00 1019.08 1019.12 1019.10 1018.99 1018.80 1018.55 1018.27 1018.00 1017.79 1017.68 1017.66 1017.74 1017.90
1010.60 1010.77 1011.02 1011.41 1011.95 1012.64 1013.43 1014.24 1014.99 1015.60 1016.04 1016.31 1016.43 1016.47 1016.49 1016.57 1016.73 1016.99 1017.34 1017.72 1018.09 1018.41 1018.65 1018.79 1018.87 1018.90 1018.93 1018.99 1019.09 1019.22 1019.35 1019.45 1019.47 1019.39 1019.21 1018.95 1018.63 1018.31 1018.03 1017.83 1017.74 1017.76 1017.86
1011.07 1011.16 1011.32 1011.63 1012.11 1012.75 1013.51 1014.31 1015.05 1015.66 1016.09 1016.33 1016.44 1016.46 1016.48 1016.56 1016.74 1017.04 1017.43 1017.85 1018.25 1018.58 1018.82 1018.95 1019.00 1019.01 1019.04 1019.10 1019.23 1019.40 1019.58 1019.74 1019.83 1019.80 1019.65 1019.39 1019.05 1018.69 1018.36 1018.10 1017.93 1017.88 1017.91
1011.54 1011.56 1011.64 1011.86 1012.26 1012.84 1013.55 1014.30 1015.02 1015.61 1016.03 1016.27 1016.37 1016.40 1016.43 1016.53 1016.74 1017.06 1017.47 1017.92 1018.33 1018.66 1018.89 1019.00 1019.04 1019.04 1019.07 1019.15 1019.30 1019.52 1019.76 1019.99 1020.13 1020.16 1020.05 1019.82 1019.49 1019.11 1018.74 1018.42 1018.20 1018.08 1018.05
1011.95 1011.92 1011.93 1012.06 1012.38 1012.87 1013.50 1014.20 1014.88 1015.44 1015.85 1016.10 1016.22 1016.27 1016.33 1016.46 1016.69 1017.03 1017.45 1017.90 1018.31 1018.63 1018.85 1018.95 1018.98 1018.99 1019.02 1019.12 1019.31 1019.57 1019.87 1020.15 1020.36 1020.44 1020.38 1020.18 1019.87 1019.50 1019.12 1018.77 1018.50 1018.33 1018.24
1012.28 1012.22 1012.17 1012.22 1012.44 1012.84 1013.39 1014.01 1014.63 1015.17 1015.58 1015.84 1015.99 1016.08 1016.17 1016.33 1016.58 1016.94 1017.36 1017.80 1018.20 1018.51 1018.71 1018.81 1018.84 1018.85 1018.90 1019.03 1019.25 1019.54 1019.88 1020.21 1020.46 1020.59 1020.58 1020.43 1020.16 1019.81 1019.44 1019.09 1018.80 1018.59 1018.45
Thickness
5782 5785 5784 5783 5783 5782 5781 5780 5779 5778 5777 5776 5774 5773 5772 5771 5769 5767 5766 5764 5762 5760 5759 5757 5756 5755 5754 5753 5753 5752 5751 5749 5748 5747 5745 5744 5743 5742 5741 5740 5739 5738 5737
5787 5785 5783 5782 5782 5780 5780 5779 5778 5776 5775 5774 5773 5772 5771 5769 5767 5766 5764 5762 5760 5759 5757 5756 5755 5754 5753 5752 5751 5750 5749 5748 5747 5746 5744 5743 5742 5740 5739 5738 5737 5736 5736
5786 5783 5782 5781 5780 5779 5778 5777 5776 5775 5773 5772 5771 5770 5769 5767 5766 5764 5762 5760 5759 5757 5756 5755 5754 5753 5751 5750 5749 5748 5747 5746 5745 5744 5742 5741 5740 5739 5738 5737 5736 5736 5735
5785 5782 5780 5779 5777 5776 5775 5775 5773 5773 5772 5770 5769 5768 5767 5766 5764 5762 5761 5759 5757 5756 5754 5753 5752 5751 5750 5748 5747 5746 5745 5744 5744 5742 5741 5740 5739 5738 5736 5735 5735 5734 5734
5781 5779 5777 5776 5775 5774 5773 5772 5771 5770 5770 5769 5768 5767 5766 5764 5762 5761 5759 5757 5756 5754 5752 5751 5750 5749 5747 5746 5745 5744 5743 5743 5742 5741 5739 5738 5737 5736 5735 5734 5733 5733 5733
5776 5775 5774 5773 5772 5771 5770 5770 5769 5768 5767 5767 5766 5765 5764 5762 5760 5759 5757 5755 5754 5752 5750 5749 5748 5747 5745 5744 5743 5742 5742 5741 5740 5738 5737 5736 5735 5734 5733 5732 5732 5732 5731
5771 5771 5770 5769 5769 5769 5768 5767 5766 5766 5765 5764 5764 5763 5762 5760 5758 5756 5755 5753 5751 5750 5748 5746 5745 5744 5743 5742 5741 5740 5740 5739 5739 5736 5735 5735 5734 5733 5732 5731 5730 5730 5730
5767 5766 5766 5766 5766 5766 5766 5765 5764 5763 5763 5762 5761 5761 5759 5757 5756 5754 5753 5751 5749 5748 5746 5744 5743 5742 5741 5740 5739 5738 5738 5737 5736 5735 5734 5733 5732 5731 5730 5729 5729 5728 5728
5762 5763 5763 5763 5763 5763 5763 5763 5762 5761 5760 5760 5759 5758 5757 5755 5754 5752 5750 5749 5747 5745 5744 5742 5740 5739 5738 5737 5736 5736 5736 5735 5734 5733 5732 5731 5730 5730 5729 5728 5727 5726 5726
5758 5759 5760 5760 5760 5760 5760 5760 5759 5759 5758 5757 5757 5756 5754 5753 5752 5750 5748 5746 5745 5743 5742 5740 5739 5737 5735 5735 5734 5734 5734 5733 5732 5731 5730 5729 5728 5728 5727 5726 5725 5725 5725
5753 5755 5756 5756 5756 5757 5758 5758 5757 5757 5756 5755 5755 5754 5752 5750 5749 5748 5746 5744 5743 5741 5740 5738 5737 5735 5733 5733 5732 5732 5731 5731 5730 5729 5729 5727 5726 5726 5725 5724 5724 5723 5723
5749 5751 5753 5754 5754 5754 5755 5755 5755 5755 5754 5753 5753 5752 5750 5748 5747 5746 5744 5742 5741 5740 5738 5737 5735 5734 5732 5731 5730 5730 5729 5729 5728 5727 5726 5726 5725 5724 5723 5722 5722 5721 5721
5747 5749 5751 5752 5751 5752 5753 5753 5752 5752 5752 5751 5750 5750 5748 5746 5745 5744 5743 5741 5739 5738 5736 5735 5734 5732 5730 5729 5729 5728 5728 5727 5726 5725 5725 5725 5724 5723 5722 5722 5721 5720 5720
5746 5748 5750 5751 5751 5750 5751 5751 5750 5749 5749 5749 5748 5748 5746 5744 5743 5742 5741 5739 5738 5736 5735 5733 5732 5731 5729 5728 5727 5727 5726 5726 5724 5724 5724 5724 5723 5722 5721 5720 5720 5719 5719
5747 5748 5749 5750 5751 5750 5751 5751 5749 5748 5747 5747 5747 5746 5745 5743 5742 5741 5739 5738 5736 5735 5734 5732 5731 5729 5728 5727 5726 5725 5724 5724 5723 5723 5723 5723 5722 5721 5720 5719 5718 5718 5717
5747 5748 5749 5749 5751 5750 5750 5749 5748 5747 5746 5745 5745 5745 5744 5742 5741 5739 5738 5736 5735 5734 5733 5731 5729 5728 5727 5726 5725 5724 5723 5722 5722 5721 5721 5720 5720 5719 5718 5717 5717 5717 5716
5748 5748 5749 5749 5749 5750 5749 5748 5746 5745 5744 5744 5743 5743 5742 5741 5740 5738 5736 5735 5734 5733 5731 5730 5728 5727 5725 5724 5723 5723 5722 5721 5721 5720 5719 5719 5719 5718 5717 5717 5716 5716 5715
5748 5746 5747 5749 5748 5748 5747 5746 5744 5743 5742 5742 5742 5741 5740 5740 5739 5737 5735 5734 5733 5732 5730 5728 5726 5724 5723 5722 5721 5721 5721 5720 5720 5719 5719 5718 5718 5717 5717 5716 5716 5715 5714
5747 5746 5745 5746 5746 5745 5745 5744 5743 5742 5741 5741 5740 5739 5739 5738 5738 5736 5734 5733 5733 5731 5729 5728 5725 5723 5721 5720 5720 5720 5720 5719 5719 5719 5718 5718 5717 5717 5716 5716 5715 5714 5713
5746 5745 5745 5745 5745 5744 5743 5742 5740 5738 5738 5738 5739 5738 5737 5737 5736 5735 5733 5732 5731 5729 5727 5726 5724 5722 5721 5720 5720 5718 5718 5718 5718 5718 5718 5718 5717 5716 5716 5715 5714 5714 5713
5743 5742 5744 5743 5742 5742 5740 5738 5736 5734 5735 5736 5737 5737 5736 5736 5735 5734 5732 5731 5730 5728 5726 5725 5723 5721 5719 5719 5716 5712 5714 5716 5716 5717 5717 5717 5716 5716 5715 5714 5714 5713 5712
5743 5742 5743 5742 5741 5741 5740 5739 5738 5736 5735 5735 5736 5735 5735 5735 5735 5734 5732 5730 5729 5727 5725 5724 5722 5719 5718 5717 5713 5707 5704 5706 5711 5715 5715 5716 5716 5715 5714 5714 5713 5712 5711
5743 5742 5744 5742 5740 5740 5740 5738 5736 5733 5731 5730 5731 5732 5734 5735 5734 5733 5731 5730 5728 5727 5724 5723 5722 5719 5715 5715 5715 5710 5702 5698 5702 5709 5712 5713 5714 5713 5714 5713 5712 5711 5710
5744 5744 5743 5742 5740 5739 5739 5737 5734 5730 5727 5729 5732 5733 5733 5734 5733 5732 5731 5730 5728 5726 5724 5723 5721 5720 5717 5713 5713 5713 5710 5708 5702 5700 5705 5709 5711 5712 5712 5712 5711 5710 5709
5746 5745 5743 5741 5739 5738 5738 5737 5735 5732 5731 5732 5732 5731 5731 5731 5732 5731 5730 5729 5727 5725 5724 5722 5720 5719 5716 5713 5712 5711 5709 5707 5705 5701 5697 5701 5705 5708 5710 5710 5709 5708 5707
5745 5744 5743 5740 5738 5738 5738 5737 5735 5733 5731 5730 5730 5728 5728 5729 5730 5730 5729 5728 5726 5724 5722 5721 5719 5718 5715 5713 5712 5710 5708 5705 5702 5700 5696 5696 5697 5703 5707 5707 5707 5706 5706